date,time,SUV Intensity [MED/Hr],UV Index,Daily total [MED],Since Last [MED]
07/06/2023,00:02:40,0.000,0.0,0.0,0.0
07/06/2023,00:03:41,-0.001,0.0,0.0,0.0
07/06/2023,00:04:40,0.000,0.0,0.0,0.0
07/06/2023,00:05:40,-0.000,0.0,0.0,0.0
07/06/2023,00:06:40,-0.000,0.0,0.0,0.0
07/06/2023,00:07:41,0.001,0.0,0.0,0.0
07/06/2023,00:08:40,0.000,0.0,0.0,0.0
07/06/2023,00:09:40,0.000,0.0,0.0,0.0
07/06/2023,00:10:40,-0.001,0.0,0.0,0.0
07/06/2023,00:11:40,-0.001,0.0,0.0,0.0
07/06/2023,00:12:41,0.000,0.0,0.0,0.0
07/06/2023,00:13:40,0.000,0.0,0.0,0.0
07/06/2023,00:14:41,0.000,0.0,0.0,0.0
07/06/2023,00:15:41,0.000,0.0,0.0,0.0
07/06/2023,00:16:40,0.000,0.0,0.0,0.0
07/06/2023,00:17:40,0.000,0.0,0.0,0.0
07/06/2023,00:18:40,0.000,0.0,0.0,0.0
07/06/2023,00:19:41,0.000,0.0,0.0,0.0
07/06/2023,00:20:40,0.000,0.0,0.0,0.0
07/06/2023,00:21:40,0.001,0.0,0.0,0.0
07/06/2023,00:22:40,-0.001,0.0,0.0,0.0
07/06/2023,00:23:40,0.001,0.0,0.0,0.0
07/06/2023,00:24:41,0.001,0.0,0.0,0.0
07/06/2023,00:25:40,0.000,0.0,0.0,0.0
07/06/2023,00:26:40,0.001,0.0,0.0,0.0
07/06/2023,00:27:40,0.000,0.0,0.0,0.0
07/06/2023,00:28:40,-0.001,0.0,0.0,0.0
07/06/2023,00:29:40,0.000,0.0,0.0,0.0
07/06/2023,00:30:41,-0.001,0.0,0.0,0.0
07/06/2023,00:31:40,0.000,0.0,0.0,0.0
07/06/2023,00:32:40,0.000,0.0,0.0,0.0
07/06/2023,00:33:40,0.000,0.0,0.0,0.0
07/06/2023,00:34:40,0.000,0.0,0.0,0.0
07/06/2023,00:35:40,0.001,0.0,0.0,0.0
07/06/2023,00:36:41,0.000,0.0,0.0,0.0
07/06/2023,00:37:41,0.001,0.0,0.0,0.0
07/06/2023,00:38:40,-0.001,0.0,0.0,0.0
07/06/2023,00:39:40,-0.000,0.0,0.0,0.0
07/06/2023,00:40:40,0.001,0.0,0.0,0.0
07/06/2023,00:41:40,0.000,0.0,0.0,0.0
07/06/2023,00:42:40,0.000,0.0,0.0,0.0
07/06/2023,00:43:41,-0.001,0.0,0.0,0.0
07/06/2023,00:44:40,-0.001,0.0,0.0,0.0
07/06/2023,00:45:41,0.000,0.0,0.0,0.0
07/06/2023,00:46:40,0.000,0.0,0.0,0.0
07/06/2023,00:47:40,-0.001,0.0,0.0,0.0
07/06/2023,00:48:40,-0.001,0.0,0.0,0.0
07/06/2023,00:49:40,0.000,0.0,0.0,0.0
07/06/2023,00:50:40,-0.001,0.0,0.0,0.0
07/06/2023,00:51:41,0.000,0.0,0.0,0.0
07/06/2023,00:52:40,0.000,0.0,0.0,0.0
07/06/2023,00:53:41,-0.001,0.0,0.0,0.0
07/06/2023,00:54:40,0.000,0.0,0.0,0.0
07/06/2023,00:55:40,0.001,0.0,0.0,0.0
07/06/2023,00:56:40,0.000,0.0,0.0,0.0
07/06/2023,00:57:41,0.000,0.0,0.0,0.0
07/06/2023,00:58:40,0.000,0.0,0.0,0.0
07/06/2023,00:59:41,0.000,0.0,0.0,0.0
07/06/2023,01:00:40,-0.000,0.0,0.0,0.0
07/06/2023,01:01:40,0.000,0.0,0.0,0.0
07/06/2023,01:02:40,0.001,0.0,0.0,0.0
07/06/2023,01:03:40,0.000,0.0,0.0,0.0
07/06/2023,01:04:41,0.000,0.0,0.0,0.0
07/06/2023,01:05:40,0.000,0.0,0.0,0.0
07/06/2023,01:06:41,0.001,0.0,0.0,0.0
07/06/2023,01:07:41,0.002,0.0,0.0,0.0
07/06/2023,01:08:40,0.000,0.0,0.0,0.0
07/06/2023,01:09:41,0.000,0.0,0.0,0.0
07/06/2023,01:10:40,0.000,0.0,0.0,0.0
07/06/2023,01:11:41,0.000,0.0,0.0,0.0
07/06/2023,01:12:40,0.000,0.0,0.0,0.0
07/06/2023,01:13:40,0.000,0.0,0.0,0.0
07/06/2023,01:14:41,0.000,0.0,0.0,0.0
07/06/2023,01:15:41,0.001,0.0,0.0,0.0
07/06/2023,01:16:40,0.000,0.0,0.0,0.0
07/06/2023,01:17:40,0.000,0.0,0.0,0.0
07/06/2023,01:18:40,0.001,0.0,0.0,0.0
07/06/2023,01:19:40,-0.001,0.0,0.0,0.0
07/06/2023,01:20:40,-0.000,0.0,0.0,0.0
07/06/2023,01:21:41,0.000,0.0,0.0,0.0
07/06/2023,01:22:40,0.000,0.0,0.0,0.0
07/06/2023,01:23:40,0.001,0.0,0.0,0.0
07/06/2023,01:24:42,-0.000,0.0,0.0,0.0
07/06/2023,01:25:40,0.000,0.0,0.0,0.0
07/06/2023,01:26:40,0.000,0.0,0.0,0.0
07/06/2023,01:27:41,-0.000,0.0,0.0,0.0
07/06/2023,01:28:40,-0.001,0.0,0.0,0.0
07/06/2023,01:29:40,0.000,0.0,0.0,0.0
07/06/2023,01:30:41,0.001,0.0,0.0,0.0
07/06/2023,01:31:41,0.000,0.0,0.0,0.0
07/06/2023,01:32:40,0.000,0.0,0.0,0.0
07/06/2023,01:33:41,-0.001,0.0,0.0,0.0
07/06/2023,01:34:41,0.001,0.0,0.0,0.0
07/06/2023,01:35:41,-0.000,0.0,0.0,0.0
07/06/2023,01:36:41,0.000,0.0,0.0,0.0
07/06/2023,01:37:40,0.000,0.0,0.0,0.0
07/06/2023,01:38:40,-0.000,0.0,0.0,0.0
07/06/2023,01:39:41,0.000,0.0,0.0,0.0
07/06/2023,01:40:41,0.001,0.0,0.0,0.0
07/06/2023,01:41:41,0.000,0.0,0.0,0.0
07/06/2023,01:42:40,0.001,0.0,0.0,0.0
07/06/2023,01:43:40,-0.000,0.0,0.0,0.0
07/06/2023,01:44:40,0.001,0.0,0.0,0.0
07/06/2023,01:45:40,0.000,0.0,0.0,0.0
07/06/2023,01:46:41,-0.000,0.0,0.0,0.0
07/06/2023,01:47:40,0.000,0.0,0.0,0.0
07/06/2023,01:48:41,0.000,0.0,0.0,0.0
07/06/2023,01:49:40,0.000,0.0,0.0,0.0
07/06/2023,01:50:41,0.000,0.0,0.0,0.0
07/06/2023,01:51:41,0.000,0.0,0.0,0.0
07/06/2023,01:52:40,-0.001,0.0,0.0,0.0
07/06/2023,01:53:40,0.001,0.0,0.0,0.0
07/06/2023,01:54:40,-0.001,0.0,0.0,0.0
07/06/2023,01:55:41,0.001,0.0,0.0,0.0
07/06/2023,01:56:41,0.001,0.0,0.0,0.0
07/06/2023,01:57:41,0.000,0.0,0.0,0.0
07/06/2023,01:58:40,0.001,0.0,0.0,0.0
07/06/2023,01:59:41,-0.001,0.0,0.0,0.0
07/06/2023,02:00:41,0.000,0.0,0.0,0.0
07/06/2023,02:01:41,0.001,0.0,0.0,0.0
07/06/2023,02:02:40,0.001,0.0,0.0,0.0
07/06/2023,02:03:41,0.000,0.0,0.0,0.0
07/06/2023,02:04:41,0.000,0.0,0.0,0.0
07/06/2023,02:05:41,-0.001,0.0,0.0,0.0
07/06/2023,02:06:40,0.000,0.0,0.0,0.0
07/06/2023,02:07:41,0.000,0.0,0.0,0.0
07/06/2023,02:08:40,0.000,0.0,0.0,0.0
07/06/2023,02:09:40,0.001,0.0,0.0,0.0
07/06/2023,02:10:41,0.001,0.0,0.0,0.0
07/06/2023,02:11:41,0.001,0.0,0.0,0.0
07/06/2023,02:12:40,0.000,0.0,0.0,0.0
07/06/2023,02:13:41,0.000,0.0,0.0,0.0
07/06/2023,02:14:40,-0.001,0.0,0.0,0.0
07/06/2023,02:15:42,0.000,0.0,0.0,0.0
07/06/2023,02:16:40,0.001,0.0,0.0,0.0
07/06/2023,02:17:41,0.000,0.0,0.0,0.0
07/06/2023,02:18:40,0.000,0.0,0.0,0.0
07/06/2023,02:19:40,-0.000,0.0,0.0,0.0
07/06/2023,02:20:40,0.000,0.0,0.0,0.0
07/06/2023,02:21:40,0.000,0.0,0.0,0.0
07/06/2023,02:22:41,0.000,0.0,0.0,0.0
07/06/2023,02:23:40,0.001,0.0,0.0,0.0
07/06/2023,02:24:40,0.000,0.0,0.0,0.0
07/06/2023,02:25:41,0.001,0.0,0.0,0.0
07/06/2023,02:26:41,0.000,0.0,0.0,0.0
07/06/2023,02:27:41,-0.000,0.0,0.0,0.0
07/06/2023,02:28:41,0.001,0.0,0.0,0.0
07/06/2023,02:29:42,0.000,0.0,0.0,0.0
07/06/2023,02:30:41,0.001,0.0,0.0,0.0
07/06/2023,02:31:41,0.002,0.0,0.0,0.0
07/06/2023,02:32:41,0.001,0.0,0.0,0.0
07/06/2023,02:33:41,0.000,0.0,0.0,0.0
07/06/2023,02:34:41,-0.000,0.0,0.0,0.0
07/06/2023,02:35:41,-0.001,0.0,0.0,0.0
07/06/2023,02:36:40,0.001,0.0,0.0,0.0
07/06/2023,02:37:40,0.001,0.0,0.0,0.0
07/06/2023,02:38:41,0.000,0.0,0.0,0.0
07/06/2023,02:39:41,0.000,0.0,0.0,0.0
07/06/2023,02:40:41,0.001,0.0,0.0,0.0
07/06/2023,02:41:41,0.000,0.0,0.0,0.0
07/06/2023,02:42:40,0.000,0.0,0.0,0.0
07/06/2023,02:43:40,0.000,0.0,0.0,0.0
07/06/2023,02:44:41,-0.000,0.0,0.0,0.0
07/06/2023,02:45:41,0.000,0.0,0.0,0.0
07/06/2023,02:46:41,0.002,0.0,0.0,0.0
07/06/2023,02:47:41,0.000,0.0,0.0,0.0
07/06/2023,02:48:41,0.001,0.0,0.0,0.0
07/06/2023,02:49:40,0.000,0.0,0.0,0.0
07/06/2023,02:50:41,-0.000,0.0,0.0,0.0
07/06/2023,02:51:41,-0.000,0.0,0.0,0.0
07/06/2023,02:52:40,-0.000,0.0,0.0,0.0
07/06/2023,02:53:41,0.000,0.0,0.0,0.0
07/06/2023,02:54:40,0.001,0.0,0.0,0.0
07/06/2023,02:55:40,-0.000,0.0,0.0,0.0
07/06/2023,02:56:41,0.000,0.0,0.0,0.0
07/06/2023,02:57:40,0.000,0.0,0.0,0.0
07/06/2023,02:58:40,0.001,0.0,0.0,0.0
07/06/2023,02:59:40,0.001,0.0,0.0,0.0
07/06/2023,03:00:40,-0.000,0.0,0.0,0.0
07/06/2023,03:01:41,0.001,0.0,0.0,0.0
07/06/2023,03:02:41,0.001,0.0,0.0,0.0
07/06/2023,03:03:40,0.001,0.0,0.0,0.0
07/06/2023,03:04:41,0.000,0.0,0.0,0.0
07/06/2023,03:05:40,-0.000,0.0,0.0,0.0
07/06/2023,03:06:43,-0.001,0.0,0.0,0.0
07/06/2023,03:07:41,0.001,0.0,0.0,0.0
07/06/2023,03:08:40,0.000,0.0,0.0,0.0
07/06/2023,03:09:40,0.001,0.0,0.0,0.0
07/06/2023,03:10:41,0.000,0.0,0.0,0.0
07/06/2023,03:11:41,-0.000,0.0,0.0,0.0
07/06/2023,03:12:40,0.001,0.0,0.0,0.0
07/06/2023,03:13:41,0.000,0.0,0.0,0.0
07/06/2023,03:14:41,0.001,0.0,0.0,0.0
07/06/2023,03:15:41,0.000,0.0,0.0,0.0
07/06/2023,03:16:41,0.001,0.0,0.0,0.0
07/06/2023,03:17:40,0.000,0.0,0.0,0.0
07/06/2023,03:18:41,0.001,0.0,0.0,0.0
07/06/2023,03:19:40,0.001,0.0,0.0,0.0
07/06/2023,03:20:41,0.001,0.0,0.0,0.0
07/06/2023,03:21:41,0.001,0.0,0.0,0.0
07/06/2023,03:22:41,0.000,0.0,0.0,0.0
07/06/2023,03:23:41,0.000,0.0,0.0,0.0
07/06/2023,03:24:41,0.000,0.0,0.0,0.0
07/06/2023,03:25:40,0.001,0.0,0.0,0.0
07/06/2023,03:26:41,0.002,0.0,0.0,0.0
07/06/2023,03:27:40,0.000,0.0,0.0,0.0
07/06/2023,03:28:41,0.001,0.0,0.0,0.0
07/06/2023,03:29:41,0.001,0.0,0.0,0.0
07/06/2023,03:30:40,0.002,0.0,0.0,0.0
07/06/2023,03:31:41,0.000,0.0,0.0,0.0
07/06/2023,03:32:38,0.001,0.0,0.0,0.0
07/06/2023,03:33:40,0.002,0.0,0.0,0.0
07/06/2023,03:34:40,0.001,0.0,0.0,0.0
07/06/2023,03:35:40,0.001,0.0,0.0,0.0
07/06/2023,03:36:41,0.000,0.0,0.0,0.0
07/06/2023,03:37:41,0.001,0.0,0.0,0.0
07/06/2023,03:38:40,0.001,0.0,0.0,0.0
07/06/2023,03:39:41,0.001,0.0,0.0,0.0
07/06/2023,03:40:41,0.002,0.0,0.0,0.0
07/06/2023,03:41:41,0.001,0.0,0.0,0.0
07/06/2023,03:42:41,0.001,0.0,0.0,0.0
07/06/2023,03:43:40,0.001,0.0,0.0,0.0
07/06/2023,03:44:41,0.000,0.0,0.0,0.0
07/06/2023,03:45:41,0.002,0.0,0.0,0.0
07/06/2023,03:46:40,0.001,0.0,0.0,0.0
07/06/2023,03:47:41,0.002,0.0,0.0,0.0
07/06/2023,03:48:40,0.001,0.0,0.0,0.0
07/06/2023,03:49:41,0.002,0.0,0.0,0.0
07/06/2023,03:50:40,0.002,0.0,0.0,0.0
07/06/2023,03:51:41,0.002,0.0,0.0,0.0
07/06/2023,03:52:41,0.002,0.0,0.0,0.0
07/06/2023,03:53:41,0.001,0.0,0.0,0.0
07/06/2023,03:54:40,0.001,0.0,0.0,0.0
07/06/2023,03:55:41,0.002,0.0,0.0,0.0
07/06/2023,03:56:41,0.002,0.0,0.0,0.0
07/06/2023,03:57:40,0.002,0.0,0.0,0.0
07/06/2023,03:58:40,0.002,0.0,0.0,0.0
07/06/2023,03:59:40,0.002,0.0,0.0,0.0
07/06/2023,04:00:41,0.002,0.0,0.0,0.0
07/06/2023,04:01:41,0.002,0.0,0.0,0.0
07/06/2023,04:02:40,0.002,0.0,0.0,0.0
07/06/2023,04:03:41,0.002,0.0,0.0,0.0
07/06/2023,04:04:41,0.003,0.0,0.0,0.0
07/06/2023,04:05:41,0.002,0.0,0.0,0.0
07/06/2023,04:06:40,0.003,0.0,0.0,0.0
07/06/2023,04:07:41,0.003,0.0,0.0,0.0
07/06/2023,04:08:40,0.003,0.0,0.0,0.0
07/06/2023,04:09:40,0.004,0.0,0.0,0.0
07/06/2023,04:10:40,0.003,0.0,0.0,0.0
07/06/2023,04:12:02,0.003,0.0,0.0,0.0
07/06/2023,04:13:42,0.004,0.0,0.0,0.0
07/06/2023,04:14:41,0.004,0.0,0.0,0.0
07/06/2023,04:15:41,0.004,0.0,0.0,0.0
07/06/2023,04:16:41,0.004,0.0,0.0,0.0
07/06/2023,04:17:41,0.004,0.0,0.0,0.0
07/06/2023,04:18:40,0.005,0.0,0.0,0.0
07/06/2023,04:19:40,0.004,0.0,0.0,0.0
07/06/2023,04:20:41,0.006,0.0,0.0,0.0
07/06/2023,04:21:40,0.005,0.0,0.0,0.0
07/06/2023,04:22:41,0.005,0.0,0.0,0.0
07/06/2023,04:23:40,0.005,0.0,0.0,0.0
07/06/2023,04:24:41,0.005,0.0,0.0,0.0
07/06/2023,04:25:40,0.006,0.0,0.0,0.0
07/06/2023,04:26:41,0.006,0.0,0.0,0.0
07/06/2023,04:27:40,0.006,0.0,0.0,0.0
07/06/2023,04:28:41,0.006,0.0,0.0,0.0
07/06/2023,04:29:40,0.006,0.0,0.0,0.0
07/06/2023,04:30:41,0.006,0.0,0.0,0.0
07/06/2023,04:31:42,0.007,0.0,0.0,0.0
07/06/2023,04:32:40,0.007,0.0,0.001,0.001
07/06/2023,04:33:41,0.007,0.0,0.001,0.0
07/06/2023,04:34:41,0.008,0.0,0.001,0.0
07/06/2023,04:35:41,0.008,0.0,0.001,0.0
07/06/2023,04:36:41,0.008,0.0,0.001,0.0
07/06/2023,04:37:41,0.007,0.0,0.001,0.0
07/06/2023,04:38:41,0.009,0.0,0.001,0.0
07/06/2023,04:39:40,0.010,0.0,0.002,0.001
07/06/2023,04:40:41,0.009,0.0,0.002,0.0
07/06/2023,04:41:40,0.010,0.0,0.002,0.0
07/06/2023,04:42:41,0.010,0.0,0.002,0.0
07/06/2023,04:43:41,0.011,0.0,0.002,0.0
07/06/2023,04:44:40,0.010,0.0,0.002,0.0
07/06/2023,04:45:41,0.010,0.0,0.002,0.0
07/06/2023,04:46:41,0.011,0.0,0.003,0.001
07/06/2023,04:47:42,0.011,0.0,0.003,0.0
07/06/2023,04:48:40,0.011,0.0,0.003,0.0
07/06/2023,04:49:41,0.011,0.0,0.003,0.0
07/06/2023,04:50:40,0.011,0.0,0.003,0.0
07/06/2023,04:51:41,0.012,0.0,0.004,0.001
07/06/2023,04:52:41,0.013,0.0,0.004,0.0
07/06/2023,04:53:41,0.013,0.0,0.004,0.0
07/06/2023,04:54:41,0.013,0.0,0.004,0.0
07/06/2023,04:55:41,0.014,0.0,0.004,0.0
07/06/2023,04:56:41,0.014,0.0,0.005,0.001
07/06/2023,04:57:41,0.015,0.0,0.005,0.0
07/06/2023,04:58:40,0.015,0.0,0.005,0.0
07/06/2023,04:59:41,0.016,0.0,0.005,0.0
07/06/2023,05:00:41,0.016,0.0,0.006,0.001
07/06/2023,05:01:41,0.016,0.0,0.006,0.0
07/06/2023,05:02:40,0.017,0.0,0.006,0.0
07/06/2023,05:03:41,0.016,0.0,0.006,0.0
07/06/2023,05:04:40,0.018,0.0,0.007,0.001
07/06/2023,05:05:41,0.018,0.0,0.007,0.0
07/06/2023,05:06:41,0.019,0.0,0.007,0.0
07/06/2023,05:07:41,0.020,0.0,0.008,0.001
07/06/2023,05:08:41,0.021,0.0,0.008,0.0
07/06/2023,05:09:40,0.023,0.0,0.008,0.0
07/06/2023,05:10:41,0.021,0.0,0.009,0.001
07/06/2023,05:11:40,0.023,0.0,0.009,0.0
07/06/2023,05:12:41,0.024,0.0,0.01,0.001
07/06/2023,05:13:41,0.025,0.0,0.01,0.0
07/06/2023,05:14:41,0.026,0.0,0.01,0.0
07/06/2023,05:15:41,0.025,0.0,0.011,0.001
07/06/2023,05:16:41,0.025,0.0,0.011,0.0
07/06/2023,05:17:41,0.027,0.0,0.012,0.001
07/06/2023,05:18:41,0.027,0.0,0.012,0.0
07/06/2023,05:19:41,0.027,0.0,0.012,0.0
07/06/2023,05:20:40,0.027,0.0,0.013,0.001
07/06/2023,05:21:41,0.026,0.0,0.013,0.0
07/06/2023,05:22:41,0.028,0.0,0.014,0.001
07/06/2023,05:23:41,0.028,0.0,0.014,0.0
07/06/2023,05:24:41,0.030,0.0,0.015,0.001
07/06/2023,05:25:40,0.029,0.0,0.015,0.0
07/06/2023,05:26:40,0.030,0.0,0.016,0.001
07/06/2023,05:27:41,0.031,0.0,0.016,0.0
07/06/2023,05:28:41,0.030,0.0,0.017,0.001
07/06/2023,05:29:41,0.031,0.0,0.017,0.0
07/06/2023,05:30:41,0.032,0.0,0.018,0.001
07/06/2023,05:31:41,0.032,0.0,0.018,0.0
07/06/2023,05:32:41,0.034,0.0,0.019,0.001
07/06/2023,05:33:40,0.034,0.0,0.019,0.0
07/06/2023,05:34:41,0.035,0.0,0.02,0.001
07/06/2023,05:35:40,0.035,0.0,0.021,0.001
07/06/2023,05:36:41,0.036,0.0,0.021,0.0
07/06/2023,05:37:41,0.036,0.0,0.022,0.001
07/06/2023,05:38:41,0.037,0.0,0.022,0.0
07/06/2023,05:39:41,0.037,0.0,0.023,0.001
07/06/2023,05:40:40,0.038,0.0,0.024,0.001
07/06/2023,05:41:41,0.038,0.0,0.024,0.0
07/06/2023,05:42:40,0.039,0.0,0.025,0.001
07/06/2023,05:43:41,0.039,0.0,0.026,0.001
07/06/2023,05:44:41,0.038,0.0,0.026,0.0
07/06/2023,05:45:41,0.040,0.0,0.027,0.001
07/06/2023,05:46:41,0.040,0.0,0.028,0.001
07/06/2023,05:47:41,0.041,0.0,0.028,0.0
07/06/2023,05:48:41,0.043,0.0,0.029,0.001
07/06/2023,05:49:41,0.043,0.0,0.03,0.001
07/06/2023,05:50:41,0.043,0.0,0.03,0.0
07/06/2023,05:51:42,0.044,0.0,0.031,0.001
07/06/2023,05:52:41,0.045,0.0,0.032,0.001
07/06/2023,05:53:40,0.045,0.0,0.033,0.001
07/06/2023,05:54:41,0.046,0.0,0.033,0.0
07/06/2023,05:55:40,0.049,0.0,0.034,0.001
07/06/2023,05:56:41,0.050,0.0,0.035,0.001
07/06/2023,05:57:41,0.053,0.0,0.036,0.001
07/06/2023,05:58:41,0.053,0.0,0.037,0.001
07/06/2023,05:59:40,0.055,0.0,0.038,0.001
07/06/2023,06:00:41,0.057,0.0,0.038,0.0
07/06/2023,06:01:41,0.056,0.0,0.039,0.001
07/06/2023,06:02:41,0.057,0.0,0.04,0.001
07/06/2023,06:03:41,0.059,0.0,0.041,0.001
07/06/2023,06:04:40,0.059,0.0,0.042,0.001
07/06/2023,06:05:41,0.061,0.0,0.043,0.001
07/06/2023,06:06:41,0.064,0.0,0.044,0.001
07/06/2023,06:07:41,0.063,0.0,0.045,0.001
07/06/2023,06:08:41,0.063,0.0,0.046,0.001
07/06/2023,06:09:40,0.065,0.0,0.048,0.002
07/06/2023,06:10:41,0.067,0.0,0.049,0.001
07/06/2023,06:11:41,0.066,0.0,0.05,0.001
07/06/2023,06:12:40,0.064,0.0,0.051,0.001
07/06/2023,06:13:41,0.064,0.0,0.052,0.001
07/06/2023,06:14:40,0.065,0.0,0.053,0.001
07/06/2023,06:15:41,0.065,0.0,0.054,0.001
07/06/2023,06:16:41,0.064,0.0,0.055,0.001
07/06/2023,06:17:40,0.064,0.0,0.056,0.001
07/06/2023,06:18:41,0.066,0.0,0.057,0.001
07/06/2023,06:19:41,0.068,0.0,0.058,0.001
07/06/2023,06:20:41,0.070,0.0,0.06,0.002
07/06/2023,06:21:41,0.072,0.0,0.061,0.001
07/06/2023,06:22:41,0.074,0.0,0.062,0.001
07/06/2023,06:23:41,0.077,0.0,0.063,0.001
07/06/2023,06:24:40,0.077,0.0,0.064,0.001
07/06/2023,06:25:41,0.077,0.0,0.066,0.002
07/06/2023,06:26:40,0.079,0.0,0.067,0.001
07/06/2023,06:27:40,0.081,0.0,0.068,0.001
07/06/2023,06:28:41,0.082,0.0,0.07,0.002
07/06/2023,06:29:41,0.084,0.0,0.071,0.001
07/06/2023,06:30:40,0.087,0.0,0.073,0.002
07/06/2023,06:31:41,0.087,0.0,0.074,0.001
07/06/2023,06:32:41,0.087,0.0,0.076,0.002
07/06/2023,06:33:41,0.087,0.0,0.077,0.001
07/06/2023,06:34:42,0.088,0.0,0.078,0.001
07/06/2023,06:35:41,0.087,0.0,0.08,0.002
07/06/2023,06:36:41,0.087,0.0,0.081,0.001
07/06/2023,06:37:40,0.090,0.0,0.083,0.002
07/06/2023,06:38:41,0.089,0.0,0.084,0.001
07/06/2023,06:39:41,0.091,0.0,0.086,0.002
07/06/2023,06:40:41,0.093,0.0,0.087,0.001
07/06/2023,06:41:41,0.095,0.0,0.089,0.002
07/06/2023,06:42:41,0.096,0.0,0.09,0.001
07/06/2023,06:43:41,0.097,0.0,0.092,0.002
07/06/2023,06:44:38,0.098,0.0,0.094,0.002
07/06/2023,06:45:41,0.100,0.0,0.095,0.001
07/06/2023,06:46:41,0.101,0.0,0.097,0.002
07/06/2023,06:47:41,0.099,0.0,0.099,0.002
07/06/2023,06:48:40,0.101,0.0,0.1,0.001
07/06/2023,06:49:41,0.104,0.0,0.102,0.002
07/06/2023,06:50:42,0.106,0.0,0.104,0.002
07/06/2023,06:51:41,0.106,0.0,0.106,0.002
07/06/2023,06:52:40,0.108,0.0,0.107,0.001
07/06/2023,06:53:41,0.110,0.0,0.109,0.002
07/06/2023,06:54:41,0.112,0.0,0.111,0.002
07/06/2023,06:55:41,0.111,0.0,0.113,0.002
07/06/2023,06:56:41,0.111,0.0,0.115,0.002
07/06/2023,06:57:41,0.113,0.0,0.117,0.002
07/06/2023,06:58:41,0.115,0.0,0.119,0.002
07/06/2023,06:59:41,0.116,0.0,0.12,0.001
07/06/2023,07:00:41,0.118,0.0,0.122,0.002
07/06/2023,07:01:40,0.121,0.0,0.124,0.002
07/06/2023,07:02:41,0.124,0.0,0.126,0.002
07/06/2023,07:03:41,0.127,0.0,0.129,0.003
07/06/2023,07:04:41,0.129,0.0,0.131,0.002
07/06/2023,07:05:41,0.130,0.0,0.133,0.002
07/06/2023,07:06:41,0.133,0.0,0.135,0.002
07/06/2023,07:07:41,0.135,0.0,0.137,0.002
07/06/2023,07:08:41,0.135,0.0,0.14,0.003
07/06/2023,07:09:41,0.138,0.0,0.142,0.002
07/06/2023,07:10:41,0.142,0.0,0.144,0.002
07/06/2023,07:11:41,0.144,0.0,0.147,0.003
07/06/2023,07:12:41,0.147,0.0,0.149,0.002
07/06/2023,07:14:10,0.152,0.0,0.153,0.004
07/06/2023,07:15:41,0.159,0.0,0.157,0.004
07/06/2023,07:16:41,0.164,0.0,0.159,0.002
07/06/2023,07:17:41,0.162,0.0,0.162,0.003
07/06/2023,07:18:41,0.163,0.0,0.165,0.003
07/06/2023,07:19:41,0.169,0.0,0.167,0.002
07/06/2023,07:20:41,0.172,0.0,0.17,0.003
07/06/2023,07:21:41,0.169,0.0,0.173,0.003
07/06/2023,07:22:41,0.172,0.0,0.176,0.003
07/06/2023,07:23:41,0.175,0.0,0.179,0.003
07/06/2023,07:24:40,0.176,0.0,0.182,0.003
07/06/2023,07:25:41,0.175,0.0,0.185,0.003
07/06/2023,07:26:41,0.176,0.0,0.188,0.003
07/06/2023,07:27:41,0.178,0.0,0.191,0.003
07/06/2023,07:28:41,0.181,0.0,0.194,0.003
07/06/2023,07:29:41,0.180,0.0,0.197,0.003
07/06/2023,07:30:41,0.182,0.0,0.2,0.003
07/06/2023,07:31:41,0.190,0.0,0.203,0.003
07/06/2023,07:32:41,0.195,0.0,0.206,0.003
07/06/2023,07:33:41,0.195,0.0,0.209,0.003
07/06/2023,07:34:41,0.197,0.0,0.213,0.004
07/06/2023,07:35:40,0.201,0.0,0.216,0.003
07/06/2023,07:36:41,0.202,0.0,0.219,0.003
07/06/2023,07:37:41,0.200,0.0,0.222,0.003
07/06/2023,07:38:41,0.197,0.0,0.226,0.004
07/06/2023,07:39:41,0.197,0.0,0.229,0.003
07/06/2023,07:40:41,0.200,0.0,0.232,0.003
07/06/2023,07:41:41,0.201,0.0,0.236,0.004
07/06/2023,07:42:41,0.201,0.0,0.239,0.003
07/06/2023,07:43:41,0.205,0.0,0.243,0.004
07/06/2023,07:44:41,0.205,0.0,0.246,0.003
07/06/2023,07:45:41,0.207,0.0,0.249,0.003
07/06/2023,07:46:41,0.210,0.0,0.253,0.004
07/06/2023,07:47:41,0.212,0.0,0.256,0.003
07/06/2023,07:48:41,0.217,0.0,0.26,0.004
07/06/2023,07:49:41,0.222,1.0,0.264,0.004
07/06/2023,07:50:41,0.221,1.0,0.267,0.003
07/06/2023,07:51:41,0.224,1.0,0.271,0.004
07/06/2023,07:52:41,0.227,1.0,0.275,0.004
07/06/2023,07:53:41,0.227,1.0,0.279,0.004
07/06/2023,07:54:41,0.227,1.0,0.282,0.003
07/06/2023,07:55:41,0.229,1.0,0.286,0.004
07/06/2023,07:56:41,0.233,1.0,0.29,0.004
07/06/2023,07:57:41,0.237,1.0,0.294,0.004
07/06/2023,07:58:41,0.237,1.0,0.298,0.004
07/06/2023,07:59:41,0.242,1.0,0.302,0.004
07/06/2023,08:00:41,0.250,1.0,0.306,0.004
07/06/2023,08:01:41,0.254,1.0,0.31,0.004
07/06/2023,08:02:41,0.256,1.0,0.314,0.004
07/06/2023,08:03:41,0.258,1.0,0.319,0.005
07/06/2023,08:04:41,0.264,1.0,0.323,0.004
07/06/2023,08:05:41,0.272,1.0,0.327,0.004
07/06/2023,08:06:41,0.278,1.0,0.332,0.005
07/06/2023,08:07:41,0.282,1.0,0.337,0.005
07/06/2023,08:08:41,0.283,1.0,0.341,0.004
07/06/2023,08:09:41,0.288,1.0,0.346,0.005
07/06/2023,08:10:41,0.290,1.0,0.351,0.005
07/06/2023,08:11:41,0.290,1.0,0.356,0.005
07/06/2023,08:12:41,0.290,1.0,0.361,0.005
07/06/2023,08:13:41,0.288,1.0,0.365,0.004
07/06/2023,08:14:41,0.289,1.0,0.37,0.005
07/06/2023,08:15:41,0.290,1.0,0.375,0.005
07/06/2023,08:16:41,0.290,1.0,0.38,0.005
07/06/2023,08:17:41,0.290,1.0,0.385,0.005
07/06/2023,08:18:41,0.293,1.0,0.39,0.005
07/06/2023,08:19:41,0.300,1.0,0.394,0.004
07/06/2023,08:20:42,0.305,1.0,0.4,0.006
07/06/2023,08:21:41,0.304,1.0,0.405,0.005
07/06/2023,08:22:41,0.308,1.0,0.41,0.005
07/06/2023,08:23:41,0.312,1.0,0.415,0.005
07/06/2023,08:24:41,0.318,1.0,0.42,0.005
07/06/2023,08:25:41,0.320,1.0,0.426,0.006
07/06/2023,08:26:42,0.322,1.0,0.431,0.005
07/06/2023,08:27:41,0.322,1.0,0.436,0.005
07/06/2023,08:28:41,0.326,1.0,0.441,0.005
07/06/2023,08:29:41,0.334,1.0,0.447,0.006
07/06/2023,08:30:41,0.341,1.0,0.453,0.006
07/06/2023,08:31:41,0.348,1.0,0.458,0.005
07/06/2023,08:32:43,0.354,1.0,0.464,0.006
07/06/2023,08:33:41,0.357,1.0,0.47,0.006
07/06/2023,08:34:41,0.360,1.0,0.476,0.006
07/06/2023,08:35:41,0.363,1.0,0.482,0.006
07/06/2023,08:36:41,0.371,1.0,0.488,0.006
07/06/2023,08:37:41,0.368,1.0,0.494,0.006
07/06/2023,08:38:41,0.364,1.0,0.501,0.007
07/06/2023,08:39:41,0.366,1.0,0.507,0.006
07/06/2023,08:40:41,0.370,1.0,0.513,0.006
07/06/2023,08:41:42,0.373,1.0,0.519,0.006
07/06/2023,08:42:41,0.381,1.0,0.525,0.006
07/06/2023,08:43:41,0.387,1.0,0.532,0.007
07/06/2023,08:44:41,0.395,1.0,0.538,0.006
07/06/2023,08:45:41,0.400,1.0,0.545,0.007
07/06/2023,08:46:41,0.408,1.0,0.551,0.006
07/06/2023,08:47:41,0.419,1.0,0.558,0.007
07/06/2023,08:48:41,0.420,1.0,0.565,0.007
07/06/2023,08:49:41,0.411,1.0,0.572,0.007
07/06/2023,08:50:41,0.411,1.0,0.579,0.007
07/06/2023,08:51:42,0.422,1.0,0.586,0.007
07/06/2023,08:52:41,0.429,1.0,0.593,0.007
07/06/2023,08:53:41,0.433,1.0,0.6,0.007
07/06/2023,08:54:40,0.443,1.0,0.608,0.008
07/06/2023,08:55:41,0.451,1.0,0.615,0.007
07/06/2023,08:56:41,0.451,1.0,0.623,0.008
07/06/2023,08:57:41,0.448,1.0,0.63,0.007
07/06/2023,08:58:41,0.450,1.0,0.638,0.008
07/06/2023,08:59:41,0.454,1.0,0.645,0.007
07/06/2023,09:00:41,0.461,1.0,0.653,0.008
07/06/2023,09:01:41,0.459,1.0,0.66,0.007
07/06/2023,09:02:41,0.454,1.0,0.668,0.008
07/06/2023,09:03:41,0.457,1.0,0.676,0.008
07/06/2023,09:04:41,0.460,1.0,0.683,0.007
07/06/2023,09:05:42,0.466,1.0,0.691,0.008
07/06/2023,09:06:41,0.470,1.0,0.699,0.008
07/06/2023,09:07:41,0.471,1.0,0.707,0.008
07/06/2023,09:08:41,0.473,1.0,0.714,0.007
07/06/2023,09:09:42,0.481,1.0,0.723,0.009
07/06/2023,09:10:41,0.483,1.0,0.73,0.007
07/06/2023,09:11:41,0.481,1.0,0.739,0.009
07/06/2023,09:12:41,0.481,1.0,0.747,0.008
07/06/2023,09:13:42,0.485,1.0,0.755,0.008
07/06/2023,09:14:41,0.488,1.0,0.763,0.008
07/06/2023,09:15:41,0.492,1.0,0.771,0.008
07/06/2023,09:16:41,0.506,1.0,0.779,0.008
07/06/2023,09:17:41,0.525,1.0,0.788,0.009
07/06/2023,09:18:42,0.544,1.0,0.797,0.009
07/06/2023,09:19:41,0.562,1.0,0.806,0.009
07/06/2023,09:20:41,0.571,1.0,0.815,0.009
07/06/2023,09:21:41,0.574,1.0,0.825,0.01
07/06/2023,09:22:41,0.584,1.0,0.835,0.01
07/06/2023,09:23:41,0.596,1.0,0.844,0.009
07/06/2023,09:24:41,0.610,1.0,0.854,0.01
07/06/2023,09:25:41,0.617,1.0,0.865,0.011
07/06/2023,09:26:41,0.615,1.0,0.875,0.01
07/06/2023,09:27:41,0.622,1.0,0.885,0.01
07/06/2023,09:28:41,0.624,1.0,0.896,0.011
07/06/2023,09:29:42,0.611,1.0,0.906,0.01
07/06/2023,09:30:41,0.599,1.0,0.916,0.01
07/06/2023,09:31:41,0.587,1.0,0.926,0.01
07/06/2023,09:32:42,0.584,1.0,0.936,0.01
07/06/2023,09:33:41,0.594,1.0,0.945,0.009
07/06/2023,09:34:41,0.598,1.0,0.955,0.01
07/06/2023,09:35:41,0.599,1.0,0.965,0.01
07/06/2023,09:36:41,0.606,1.0,0.976,0.011
07/06/2023,09:37:42,0.619,1.0,0.986,0.01
07/06/2023,09:38:41,0.643,1.0,0.996,0.01
07/06/2023,09:39:41,0.667,2.0,1.007,0.011
07/06/2023,09:40:42,0.682,2.0,1.018,0.011
07/06/2023,09:41:41,0.702,2.0,1.03,0.012
07/06/2023,09:42:41,0.718,2.0,1.041,0.011
07/06/2023,09:43:41,0.721,2.0,1.053,0.012
07/06/2023,09:44:42,0.724,2.0,1.066,0.013
07/06/2023,09:45:41,0.741,2.0,1.078,0.012
07/06/2023,09:46:42,0.738,2.0,1.09,0.012
07/06/2023,09:47:41,0.732,2.0,1.102,0.012
07/06/2023,09:48:41,0.733,2.0,1.114,0.012
07/06/2023,09:49:41,0.744,2.0,1.127,0.013
07/06/2023,09:50:42,0.759,2.0,1.14,0.013
07/06/2023,09:51:41,0.766,2.0,1.152,0.012
07/06/2023,09:52:42,0.785,2.0,1.165,0.013
07/06/2023,09:53:41,0.798,2.0,1.178,0.013
07/06/2023,09:54:41,0.799,2.0,1.191,0.013
07/06/2023,09:55:41,0.811,2.0,1.205,0.014
07/06/2023,09:56:41,0.811,2.0,1.219,0.014
07/06/2023,09:57:42,0.817,2.0,1.232,0.013
07/06/2023,09:58:41,0.811,2.0,1.245,0.013
07/06/2023,09:59:42,0.836,2.0,1.26,0.015
07/06/2023,10:00:41,0.836,2.0,1.273,0.013